Skip Page Navigation
NASA JPL Caltech
NASA Logo - Jet Propulsion Laboratory + View the NASA Portal
+ Center for Near-Earth Object Studies
JPL Home Earth Solar System Stars & Galaxies Technology
JPL Solar System Dynamics
BODIES ORBITS EPHEMERIDES TOOLS PHYSICAL DATA DISCOVERY FAQ SITE MAP
IMPORTANT: The SSD Announcement email list is now available. Major changes are coming in the near future, including possible hostname and/or URL changes. To be notified of such changes, subscribe to this email list.

Please visit this page for more details.


JPL Small-Body Database Browser
Search: [ help ]  
268739 (2006 KZ104)
Classification: Main-belt Asteroid          SPK-ID: 2268739
Ephemeris | Orbit Diagram | Orbital Elements | Mission Design | Physical Parameters | Discovery Circumstances | Close-Approach Data ]

[ show orbit diagram ]
Orbital Elements at Epoch 2458600.5 (2019-Apr-27.0) TDB
Reference: JPL 11 (heliocentric ecliptic J2000)
 Element Value Uncertainty (1-sigma)   Units 
e .1643015895658151 1.0796e-07  
a 3.188384311649167 3.1335e-08 au
q 2.664527701098502 3.4524e-07 au
i 16.04357235582479 1.0233e-05 deg
node 182.708850471605 1.7008e-05 deg
peri 353.6533503820361 2.2138e-05 deg
M 149.4188540513996 1.652e-05 deg
tp 2457737.407539800656
(2016-Dec-14.90753980)
9.0813e-05 TDB
period 2079.478440952837
5.69
3.0655e-05
8.393e-08
d
yr
n .1731203329210975 2.5521e-09 deg/d
Q 3.712240922199832 3.6483e-08 au
  Orbit Determination Parameters
   # obs. used (total)      227  
   data-arc span      9338 days (25.57 yr)  
   first obs. used      1994-04-03  
   last obs. used      2019-10-27  
   planetary ephem.      DE431  
   SB-pert. ephem.      SB431-N16  
   condition code      0  
   norm. resid. RMS      .62985  
   source      ORB  
   producer      Otto Matic  
   solution date      2019-Nov-08 04:19:00  

Additional Information
 Earth MOID = 1.66954 au 
 Jupiter MOID = 1.25497 au 
 T_jup = 3.116 
[ show covariance matrix ]

Ephemeris | Orbit Diagram | Orbital Elements | Mission Design | Physical Parameters | Discovery Circumstances | Close-Approach Data ]

Physical Parameter Table
Parameter Symbol Value Units Sigma Reference Notes
absolute magnitude H 15.7   n/a MPO494453  
diameter diameter 5.451 km 0.480 urn:nasa:pds:neowise_diameters_albedos::2.0[mainbelt] (http://adsabs.harvard.edu/abs/2011ApJ...741...68M)  
geometric albedo albedo 0.034   0.011 urn:nasa:pds:neowise_diameters_albedos::2.0[mainbelt] (http://adsabs.harvard.edu/abs/2011ApJ...741...68M)  

268739 (2006 KZ104)          Discovered 2006-May-28 by Spacewatch at Kitt Peak
Reference: 20110319/Numbers.arcLast Updated: 2011-03-23

[ show close-approach data ]
Alternate Designations
 2006 KZ104 = 2000 HH67 
Ephemeris | Orbit Diagram | Orbital Elements | Mission Design | Physical Parameters | Discovery Circumstances | Close-Approach Data ]
ABOUT SSD CREDITS/AWARDS PRIVACY/COPYRIGHT GLOSSARY LINKS
FirstGov 2020-Jan-20 00:37 UT
(server date/time)  
NASA Home Page
Site Manager:   Ryan S. Park
Webmaster  Alan B. Chamberlin